Location: Unspecified
(0.0000°N, 0.0000°E)
Time: 19:18:40
(UTC+00:00)

deb Explorer IX - All Passes

Search period start: 31 October 2014 00:00
Search period end: 10 November 2014 00:00
Orbit: 558 x 1204 km, 38.8° (Epoch: 30 October)

Date Brightness Start Highest point End Pass type
(mag) Time Alt. Az. Time Alt. Az. Time Alt. Az.
31 Oct - 00:19:51 10° NW 00:22:12 11° NW 00:24:31 10° NNW night (unlit)
31 Oct - 09:32:45 10° NW 09:37:19 86° NE 09:41:29 10° SE daylight
31 Oct - 20:32:36 10° SSW 20:39:19 47° SE 20:46:41 10° ENE visible
31 Oct - 22:21:12 10° WSW 22:28:09 41° NW 22:35:25 10° NNE night (unlit)
01 Nov - 07:41:45 10° N 07:44:25 14° NE 07:46:55 10° ENE daylight
01 Nov - 09:28:09 10° WNW 09:32:43 61° SW 09:36:51 10° SE daylight
01 Nov - 18:44:05 10° SSE 18:45:52 11° SE 18:47:42 10° SE visible
01 Nov - 20:27:42 10° SW 20:34:32 61° SE 20:42:09 10° ENE visible
01 Nov - 22:17:00 10° W 22:23:27 32° NW 22:30:13 10° NNE night (unlit)
02 Nov - 07:36:02 10° NNW 07:39:52 21° NE 07:43:20 10° E daylight
02 Nov - 09:23:39 10° WNW 09:28:01 40° SW 09:32:00 10° SSE daylight
02 Nov - 18:37:37 10° S 18:41:09 15° SE 18:44:55 10° ESE visible
02 Nov - 20:22:51 10° SW 20:29:41 78° SE 20:37:25 10° NE visible
02 Nov - 22:12:55 10° W 22:18:43 24° NW 22:24:47 10° NNE night (unlit)
03 Nov - 07:30:37 10° NNW 07:35:13 30° NE 07:39:15 10° E daylight
03 Nov - 09:19:15 10° W 09:23:14 27° SW 09:26:54 10° SSE daylight
03 Nov - 18:31:52 10° S 18:36:19 20° SE 18:41:12 10° E visible
03 Nov - 20:18:01 10° SW 20:24:47 82° NW 20:32:28 10° NE visible
03 Nov - 22:09:02 10° WNW 22:13:57 19° NW 22:19:05 10° N night (unlit)
04 Nov - 07:25:19 10° NNW 07:30:28 44° NE 07:34:51 10° ESE daylight
04 Nov - 09:15:02 10° W 09:18:23 19° SW 09:21:30 10° S daylight
04 Nov - 18:26:21 10° SSW 18:31:22 26° SE 18:37:01 10° E visible
04 Nov - 20:13:14 10° WSW 20:19:49 63° NW 20:27:20 10° NE visible
04 Nov - 22:05:30 10° WNW 22:09:10 14° NW 22:12:57 10° N night (unlit)
05 Nov - 07:20:06 10° NW 07:25:35 65° NE 07:30:12 10° ESE daylight
05 Nov - 09:11:11 10° WSW 09:13:28 13° SW 09:15:38 10° SSW daylight
05 Nov - 18:20:57 10° SSW 18:26:19 33° SE 18:32:31 10° ENE visible
05 Nov - 20:08:31 10° WSW 20:14:49 48° NW 20:22:01 10° NNE visible
05 Nov - 22:03:21 10° NW 22:04:22 10° NNW 22:05:22 10° NNW night (unlit)
06 Nov - 05:28:41 10° N 05:31:53 15° NNE 05:34:51 10° ENE daylight
06 Nov - 07:14:57 10° NW 07:20:36 87° SW 07:25:20 10° SE daylight
06 Nov - 18:15:36 10° SSW 18:21:11 44° SE 18:27:45 10° ENE visible
06 Nov - 20:03:51 10° WSW 20:09:47 36° NW 20:16:30 10° NNE visible
07 Nov - 05:22:29 10° N 05:26:59 20° NE 05:30:58 10° E daylight
07 Nov - 07:09:52 10° WNW 07:15:31 61° SW 07:20:15 10° SE daylight
07 Nov - 18:10:19 10° SW 18:15:59 58° SE 18:22:45 10° ENE visible
07 Nov - 19:59:18 10° W 20:04:42 28° NW 20:10:46 10° NNE visible
08 Nov - 05:16:35 10° NNW 05:21:57 28° NE 05:26:36 10° E visible
08 Nov - 07:04:50 10° WNW 07:10:19 43° SW 07:14:58 10° SSE daylight
08 Nov - 16:21:08 10° SSE 16:22:39 11° SE 16:24:15 10° ESE daylight
08 Nov - 18:05:04 10° SW 18:10:44 78° SE 18:17:33 10° NE visible
08 Nov - 19:54:54 10° W 19:59:36 21° NW 20:04:47 10° N visible
09 Nov - 05:10:47 10° NNW 05:16:49 38° NE 05:21:55 10° ESE visible
09 Nov - 06:59:53 10° WNW 07:05:02 31° SW 07:09:28 10° SSE daylight
09 Nov - 16:14:23 10° S 16:17:23 15° SE 16:20:40 10° ESE daylight
09 Nov - 17:59:51 10° SW 18:05:26 79° NW 18:12:09 10° NE visible
09 Nov - 19:50:47 10° WNW 19:54:28 16° NW 19:58:26 10° N visible
